OBJECT C, 61619

Orbit data source: Space-Track

You're viewing an Uncataloged Satellite

Recently launched and/or uncataloged satellites may have evolving metadata. Metadata may include but not limited to: Owner, Maufacturer, Bus, Motor, and Mission.

OBJECT C, 61619 is a satellite owned by PLA GAD (CN) in LEO that was launched on Wed, 23 Oct 2024 UTC via a CHANG ZHENG 2C launch vehicle from the Xichang Space Center, China (XSC). Unknown objects in Earth's orbit typically refer to objects detected orbiting the Earth but have not yet been identified or cataloged. These objects could be anything from previously untracked satellites, spent rocket stages, debris from satellite collisions, or even natural meteoroids temporarily captured by Earth's gravity.

Loading next visibility...
Identifier
61619, 2024-190C
Orbit
LEO
Last TLE update
15 hours ago
Origin
Manufacturer
SAST
Mission
Defense Communications
Bus & Motor
Unknown
Mass
~300 kg wet, ~300 kg dry
Launch date (UTC)
2024-10-23 (8 months ago)
Launch vehicle
CHANG ZHENG 2C
Launch site
Xichang Space Center, China (XSC)
Object type
Unknown
Shape & HBR
Box + 2 Pan, 5 m
Radar Cross Section
11.063 m², Large (>1 m²)

Expand to show TLE details & history

TLE from 15 hours ago
0 OBJECT C
1 61619U 24190C   25163.01862340  .00001852  00000-0  78393-4 0  9990
2 61619  34.9980   6.1412 0007514 242.4987 117.4964 15.22973554 34243
Epoch: 2025-06-12T00:26Z
TLE epoch observation values (Epoch: 2025-06-12T00:26:49.061Z)
Latitude
-0.00003°
Longitude
98.84393°
Altitude
498.172 km
Speed
7.616 km/s
True Right ascension
00h 24m 33s
True Declination
0° 00' 00"
Sunlit
Object was in daylight at epoch
Visualization orbit readout
Latitude
-31.36954°
Longitude
34.80241°
Altitude
501.033 km
Speed
7.617 km/s
Apparent Right ascension
17h 33m 14s
Apparent Declination
-44° 20' 02"
Sunlit
Object is in full shadow
Visualization observer readout
Local Sidereal Time
02:18:15
Azimuth
246.541° WSW
Elevation
-54.113°
Doppler factor
1
Orbital elements
Apogee altitude
505.296 km
Perigee altitude
494.959 km
Semi-major axis
6,878.265 km
Eccentricity
0.00075
Inclination
34.998°
RAAN
6.1412°
Arg. of periapsis
242.4987°
True anomaly
Unknown
Mean anomaly
117.4964°
Eccentric anomaly
Unknown
Mean motion
3.80474 °/min
Orbital period
94.62 mins
BSTAR
0.000078393
Loading maneuver chart data...
Loading SW <> Apogee altitude chart data...
Loading historical data...
Loading historical data...
Loading historical data...
Loading historical data...
Loading historical data...
Loading historical data...
Loading historical data...
Other satellites on launch #190 in the year 2024 (2024-10-23 UTC)

OBJECT C Visibility forecast

Observer location: undefined°, undefined°

Span
Click to sort rows by Start time (UTC) header in descending order
Start Az.
Max El. time (UTC)
Max El. Az.
Max El.
End time (UTC)
End Az.
5 mins2025-06-12 18:01:48.846Z212.575° SW2025-06-12 18:03:48.846Z168.822° S24.892°2025-06-12 18:06:48.846Z109.742° ESE
6 mins2025-06-12 19:40:48.846Z242.923° WSW2025-06-12 19:43:48.846Z162.979° S31.447°2025-06-12 19:46:48.846Z112.177° ESE
5 mins2025-06-12 21:20:48.846Z239.904° WSW2025-06-12 21:22:48.846Z196.111° SSW23.751°2025-06-12 21:25:48.846Z140.418° SSE
|